TimeMST,TemperatureF,Dew PointF,Humidity,Sea Level PressureIn,VisibilityMPH,Wind Direction,Wind SpeedMPH,Gust SpeedMPH,PrecipitationIn,Events,Conditions,WindDirDegrees,DateUTC
12:51 AM,80.6,42.8,26,29.81,10.0,North,4.6,-,N/A,,Clear,360,2013-10-03 07:51:00
1:51 AM,75.0,46.9,37,29.75,10.0,Calm,Calm,-,N/A,,Clear,0,2013-10-03 08:51:00
2:51 AM,73.0,45.0,37,29.74,10.0,East,8.1,-,N/A,,Clear,80,2013-10-03 09:51:00
3:51 AM,72.0,46.0,40,29.75,10.0,East,9.2,-,N/A,,Clear,100,2013-10-03 10:51:00
4:51 AM,70.0,43.0,38,29.75,10.0,ESE,9.2,-,N/A,,Clear,110,2013-10-03 11:51:00
5:51 AM,70.0,43.0,38,29.76,10.0,East,6.9,-,N/A,,Partly Cloudy,90,2013-10-03 12:51:00
6:51 AM,70.0,45.0,41,29.77,10.0,East,5.8,-,N/A,,Partly Cloudy,100,2013-10-03 13:51:00
7:51 AM,73.0,48.0,41,29.78,10.0,ESE,8.1,-,N/A,,Partly Cloudy,120,2013-10-03 14:51:00
8:51 AM,75.9,46.9,36,29.79,10.0,SSE,8.1,-,N/A,,Partly Cloudy,150,2013-10-03 15:51:00
9:51 AM,81.0,45.0,28,29.78,10.0,Variable,3.5,-,N/A,,Partly Cloudy,0,2013-10-03 16:51:00
10:51 AM,84.9,44.1,24,29.77,10.0,South,4.6,-,N/A,,Partly Cloudy,180,2013-10-03 17:51:00
11:51 AM,86.0,39.9,20,29.75,10.0,North,3.5,-,N/A,,Partly Cloudy,10,2013-10-03 18:51:00
12:51 PM,89.1,36.0,15,29.71,10.0,Variable,3.5,-,N/A,,Partly Cloudy,0,2013-10-03 19:51:00
1:51 PM,90.0,32.0,13,29.68,10.0,Variable,4.6,-,N/A,,Partly Cloudy,0,2013-10-03 20:51:00
2:51 PM,91.0,30.9,12,29.66,10.0,Calm,Calm,-,N/A,,Partly Cloudy,0,2013-10-03 21:51:00
3:51 PM,93.0,32.0,12,29.63,10.0,SSW,9.2,-,N/A,,Clear,200,2013-10-03 22:51:00
4:51 PM,91.9,33.1,12,29.62,10.0,West,16.1,-,N/A,,Clear,270,2013-10-03 23:51:00
5:51 PM,91.0,39.0,16,29.62,10.0,WSW,12.7,-,N/A,,Clear,250,2013-10-04 00:51:00
6:51 PM,89.1,42.1,19,29.63,10.0,West,17.3,-,N/A,,Clear,280,2013-10-04 01:51:00
7:51 PM,87.1,43.0,21,29.65,10.0,West,11.5,-,N/A,,Clear,280,2013-10-04 02:51:00
8:51 PM,82.0,44.1,26,29.67,10.0,WSW,4.6,-,N/A,,Clear,240,2013-10-04 03:51:00
9:51 PM,82.9,44.1,25,29.68,10.0,West,10.4,-,N/A,,Clear,260,2013-10-04 04:51:00
10:51 PM,82.0,44.1,26,29.69,10.0,West,10.4,-,N/A,,Clear,270,2013-10-04 05:51:00
11:51 PM,81.0,42.1,25,29.70,10.0,West,9.2,-,N/A,,Clear,270,2013-10-04 06:51:00